Tracking 19562 objects as of 24-Mar-2019
HD Live streaming from Space Station
objects crossing your sky now

COSMOS 2215

Track COSMOS 2215 now!
10-day predictions
COSMOS 2215 is classified as:


NORAD ID: 22186
Int'l Code: 1992-068E
Perigee: 1,416.7 km
Apogee: 1,436.3 km
Inclination: 82.6 °
Period: 114.2 minutes
Semi major axis: 7797 km
RCS: 1.0707 m2 (large)
Launch date: October 20, 1992
Source: Commonwealth of Independent States (former USSR) (CIS)
Launch site: PLESETSK MISSILE AND SPACE COMPLEX (PKMTR)
aabbcc
Your satellite tracking list
Your tracking list is empty




NASA's NSSDC Master Catalog

Two Line Element Set (TLE):
1 22186U 92068E   19081.93036121 +.00000013 +00000-0 +11532-4 0  9998
2 22186 082.5973 249.9059 0012556 036.3726 323.8215 12.60871968215740
Source of the keplerian elements: AFSPC